Simultaneous Nadir Overpasses (SNOs) Predictions

Prediction of SNOs between AQUA and GOES-15 Satellite Orbit:

Table of predicted SNOs for the next 14.0 days since TLE Epoch: 11/28/2020
Index Date Time (AQUA) AQUA Lat,Lon GOES-15 Lat,Lon Distance(km) Time Diff (sec)
1 11/28/2020 22:16:15 -0.50,-130.14 0.01,-127.87 258.39 80
2 11/30/2020 22:04:05 0.19,-127.20 0.01,-127.92 83.42 80
3 12/02/2020 21:51:54 0.83,-124.24 0.02,-127.97 424.46 80
4 12/03/2020 10:13:09 0.30,-129.39 0.01,-127.98 159.93 80
5 12/05/2020 10:00:58 -0.35,-126.44 0.00,-128.02 180.43 80
6 12/05/2020 22:22:21 -0.77,-131.63 -0.03,-128.03 407.95 80
7 12/07/2020 22:10:10 -0.17,-128.66 -0.03,-128.07 68.11 80
8 12/09/2020 21:57:59 0.49,-125.71 -0.02,-128.10 271.43 80
9 12/10/2020 10:19:13 0.64,-130.86 0.05,-128.11 313.70 80
10 12/12/2020 10:07:01 0.02,-127.90 0.05,-128.13 25.51 80
